Location: Sulphur Springs (historical)
(38.1246°N, 122.1900°W)
Time: 07:48:35
(UTC+00:00)

Cosmos 1703 - Pass Details

Date: 29 October 2020
Orbit: 525 x 538 km, 82.5° (Epoch: 02 December)

Event Time Altitude Azimuth Distance (km) Brightness Sun altitude
Rises 13:45:37 0° 180° (S) 2,642 6.9 -9.7°
Reaches altitude 10° 13:47:45 10° 178° (S) 1,759 6.1 -9.3°
Maximum altitude 13:51:35 68° 95° (E) 571 3.7 -8.6°
Drops below altitude 10° 13:55:28 10° 13° (NNE) 1,779 6.0 -7.8°
Sets 13:57:37 0° 11° (N) 2,675 6.8 -7.4°
